Regional Weather Roundup
Issued by NWS

Home | Current Version | Previous Version | Graphics & Text | Print | Product List | Glossary On
Versions: 1 2 3 4 5 6 7 8 9 10 11 12 13 14 15 16 17 18 19 20 21 22 23 24 25 26 27 28 29 30 31 32 33 34 35 36 37 38 39 40 41 42 43 44 45 46 47 48 49 50
000
ASUS43 KIND 232100
RWRIN

WEATHER ROUNDUP FOR INDIANA
NATIONAL WEATHER SERVICE INDIANAPOLIS IN
500 PM EDT WED AUG 23 2017

NOTE: "FAIR" INDICATES FEW OR NO CLOUDS BELOW 12,000 FEET WITH NO
SIGNIFICANT WEATHER AND/OR OBSTRUCTIONS TO VISIBILITY.

* - STATION DOES NOT REPORT WEATHER SUCH AS PRECIPITATION OR FOG.

+ - STATION NOT QUALITY CONTROLLED BY THE NATIONAL WEATHER SERVICE.
    USE DATA WITH CAUTION...ESPECIALLY DEWPOINT AND RELATIVE
    HUMIDITY OBSERVATIONS.

INZ001>003-010>013-019-020-232200-
NORTHWEST INDIANA

CITY           SKY/WX    TMP DP  RH WIND       PRES   REMARKS
GARY /AIRPORT/ MOSUNNY   72  55  56 NE12      30.03
MICHIGAN CITY+ SUNNY     70  52  52 N9G16     30.03S
MONTICELLO +   MOSUNNY   72  54  53 NW5       30.01S
RENSSELAER +   MOSUNNY   73  43  33 W12       30.02S

$$

LMZ046-743>745-232200-
SOUTHERN LAKE MICHIGAN

STATION/POSITION TIME  TEMP    WIND        PRES    WAVE
                       AIR SEA DIR/SP/G            HT
                 (UTC) (F)     (DEG/KT/KT) (MB)    (FT)
BURNS HARBOR     2040   71      40/  9/ 12 1016.9F
MICHIGAN CITY    2030   67      10/ 13/ 14   N/A
5NW MICH CITY    2050   68 74   40/ 10/ 12   N/A     3

$$

INZ004-005-014>016-021>024-232200-
NORTH CENTRAL INDIANA

CITY           SKY/WX    TMP DP  RH WIND       PRES   REMARKS
ELKHART        MOSUNNY   72  50  46 NW14G21   30.02R
GOSHEN         MOSUNNY   74  48  39 NW15G22   30.01S
PERU/GRISSOM   MOSUNNY   74  52  47 NW9       30.00F
SOUTH BEND     SUNNY     71  52  50 N13G23    30.02F

$$

INZ006>009-017-018-025>027-232200-
NORTHEAST INDIANA

CITY           SKY/WX    TMP DP  RH WIND       PRES   REMARKS
FORT WAYNE     MOSUNNY   75  51  43 NW10      29.99F
KENDALLVILLE + MOSUNNY   73  53  49 NW6G16    30.00S

$$

INZ028-029-035-036-043>045-051>053-232200-
WEST CENTRAL INDIANA

CITY           SKY/WX    TMP DP  RH WIND       PRES   REMARKS
LAFAYETTE      MOSUNNY   76  52  43 W10       30.01F
TERRE HAUTE    SUNNY     79  49  34 N7        30.02F

$$

INZ030>032-037>040-046>048-054>057-064-065-232200-
CENTRAL INDIANA

CITY           SKY/WX    TMP DP  RH WIND       PRES   REMARKS
COLUMBUS       SUNNY     77  45  31 NW7       30.01F
GREENWOOD *+   MOSUNNY   79  52  39 W6        30.03S
INDIANAPOLIS   MOSUNNY   75  49  39 NW9       30.02F
-EAGLE CREEK   MOSUNNY   76  49  38 W9        30.02F
KOKOMO +       MOSUNNY   73  53  49 NW9       30.02F
MT COMFORT *+  MOSUNNY   75  52  43 N10G16    30.02F
SHELBYVILLE    MOSUNNY   75  52  44 NW6       30.00F

$$

INZ033-034-041-042-049-050-058-059-232200-
EAST CENTRAL INDIANA

CITY           SKY/WX    TMP DP  RH WIND       PRES   REMARKS
MUNCIE         MOSUNNY   74  52  46 NW9       30.01F
RICHMOND +     SUNNY     72  50  46 NW8       30.02S

$$

INZ060-061-067>069-081>083-085>088-232200-
SOUTHWEST INDIANA

CITY           SKY/WX    TMP DP  RH WIND       PRES   REMARKS
EVANSVILLE     MOSUNNY   80  54  40 VRB7      30.02F
HUNTINGBURG +  MOSUNNY   77  58  51 NW6       30.01F

$$

INZ062-063-066-070>080-084-089>092-232200-
SOUTH CENTRAL AND SOUTHEAST INDIANA

CITY           SKY/WX    TMP DP  RH WIND       PRES   REMARKS
BLOOMINGTON    PTSUNNY   79  49  34 NE12      30.02F
MADISON *+     MOSUNNY   75  52  43 NW3       30.03S
SEYMOUR +      SUNNY     81  52  36 N12       30.00F

$$




USA.gov is the U.S. government's official web portal to all federal, state and local government web resources and services.